Ana Sayfa
METAR-TAF:

METAR-TAF

Havaalanları :

Majors Airport

Greenville, Teksas, Amerika Birleşik Devletleri

Enlem: 33-04N, Boylam: 096-04W, yükseklik: 163 m

Güncel hava durumu gözlemi

Rapor saat 23:35 UTC de 21 dakika önce yapıldı.
Rüzgar doğudan 11 kt ve 18 kt'a kadar ani rüzgarlar
Sıcaklık 25°C
Nem 69%
Basınç 1016 hPa
Görüş mesafesi: 16.1 km
Açık gökyüzü

METAR: KGVT 282335Z AUTO 09011G18KT 10SM CLR 25/19 A3001 RMK AO2 TSNO T02460189

Saat: 18:56 (23:56 UTC)


TAF: eksik

4.000'den fazla havaalanı için hava durumu gözlemleri ve tahminleri (METAR ve TAF raporları).

Kullanılabilir istasyonlar harita üzerinde sarı ve kırmızı noktalarla gösterilir.

İstasyonun adını görmek için fareyi noktanın üzerinde gezdirin.

Sonrasında hava gözlem ve tahminlerini görmek için tıklayın.

Haritayı değiştirmek için: yaklaştırmak için siyah artı işaretli yeşil düğmeye ve uzaklaştırmak için de eksi işaretli düğmeye hızla tıklayın; bitişik haritalar için yeşil okları kullanın.


METAR-TAF: